Wind_Speed
15 15 16 17 18 18 17 17 17 17 17 17 17 17 16 16 16 16 16 15 15 15 15 14 14 14 14 14 15 14 15 16 16 17 17 17 17 17
16 16 17 17 19 19 18 18 17 17 17 17 18 18 17 17 16 16 16 16 16 15 15 15 15 15 15 16 16 15 16 16 16 17 17 18 18 19
16 17 17 18 19 18 18 18 18 17 18 18 18 18 18 17 17 16 16 16 15 15 15 16 16 15 15 16 16 16 16 16 17 17 18 18 19 20
17 18 18 19 19 19 18 18 18 18 18 18 18 18 18 17 17 17 17 17 16 15 16 16 16 16 17 17 17 17 17 18 18 18 19 19 20 21
17 18 19 20 20 19 19 19 19 19 19 19 19 18 18 18 17 17 17 17 17 17 17 16 17 17 18 18 18 18 19 19 20 19 20 21 22 23
18 19 19 20 20 20 20 20 19 19 19 19 19 18 18 18 18 18 18 18 17 18 17 17 17 18 18 19 19 20 20 20 21 21 22 23 23 24
20 20 20 20 20 20 20 20 20 20 20 20 20 20 19 19 19 19 19 19 19 19 18 18 18 18 19 20 21 21 21 22 22 23 23 24 25 26
21 21 21 21 21 21 21 21 20 20 21 21 21 21 21 21 21 20 20 20 20 20 20 20 20 20 20 21 21 22 22 23 23 24 25 26 26 27
22 22 22 21 21 22 22 22 22 21 22 22 22 23 23 22 22 21 21 21 22 21 22 21 22 22 22 22 23 23 23 24 25 25 26 27 28 28
23 23 23 23 23 23 23 23 23 23 23 23 24 24 24 24 23 22 22 23 23 23 23 23 23 23 23 24 24 25 25 26 26 27 27 28 29 30
24 24 24 24 24 24 24 25 24 24 25 25 25 25 25 24 24 23 23 23 23 24 24 24 25 25 25 25 25 26 26 27 27 28 28 29 30 31
25 25 26 26 25 25 25 26 26 26 26 26 26 25 25 24 24 24 24 24 24 25 25 26 26 26 25 26 26 27 28 28 28 29 29 30 30 31
26 27 27 27 27 27 26 27 27 28 27 26 26 25 25 25 25 26 26 26 26 26 26 26 26 27 26 27 28 28 28 28 29 29 30 30 31 32
28 28 28 28 28 28 28 28 28 28 27 27 26 25 25 25 26 27 28 28 28 28 29 29 29 28 28 28 28 28 29 29 30 30 31 31 32 32
29 29 29 29 29 29 29 29 29 28 28 27 27 26 26 27 27 27 27 28 29 29 30 30 30 30 30 30 29 29 29 30 30 31 31 32 32 32
31 31 31 30 30 30 30 30 30 30 29 29 28 28 28 28 28 28 29 29 29 29 30 31 32 31 31 31 31 31 31 31 31 31 32 32 32 32
32 32 32 31 31 31 31 31 31 31 31 31 30 30 30 30 29 29 30 30 30 31 31 32 32 32 31 31 31 31 32 33 33 32 32 32 32 33
33 33 33 33 32 32 31 31 32 33 33 33 32 32 32 32 32 32 32 32 32 32 32 32 33 33 32 31 31 32 32 33 32 32 32 33 32 32
35 35 35 35 34 34 33 33 34 34 34 34 34 34 33 33 34 34 34 34 34 34 33 33 33 33 33 32 32 33 33 33 33 33 33 34 33 31
37 37 36 36 36 35 35 35 35 36 35 35 35 35 35 35 35 35 35 35 35 35 34 33 33 33 33 33 33 33 34 33 33 33 33 33 32 31
37 38 38 37 37 37 37 36 36 36 36 36 36 36 36 37 36 36 36 36 36 35 35 34 33 33 33 33 34 33 33 34 35 34 32 31 30 29
38 38 38 38 38 37 37 37 37 37 37 37 37 37 37 37 37 37 37 37 36 36 35 34 33 34 33 34 34 34 34 33 32 32 32 31 31 30
40 40 39 39 38 38 37 37 37 37 37 36 36 36 36 37 37 37 37 37 37 37 36 35 34 35 35 34 34 33 32 32 31 31 31 30 30 30
Wind_Direction
334 335 333 332 331 330 327 323 318 317 316 313 312 310 308 306 304 303 302 300 299 299 297 297 296 293 291 290 290 291 290 289 287 286 286 287 287 288
334 334 332 331 332 330 326 323 321 318 315 315 313 310 310 308 306 305 304 302 299 297 295 296 297 296 294 292 291 291 293 293 290 288 288 289 289 290
334 334 333 331 331 330 328 326 322 319 316 316 314 313 313 311 308 307 306 304 304 300 297 294 294 295 295 294 294 293 293 292 291 290 289 288 289 290
332 331 331 331 331 330 328 325 321 320 320 320 318 317 315 312 310 308 307 305 304 302 301 298 296 294 294 293 293 293 293 292 291 290 289 289 290 290
331 330 328 328 328 328 327 326 325 323 322 321 319 318 316 314 313 310 309 307 304 301 300 300 298 296 296 294 293 293 293 292 292 291 291 291 291 290
329 328 327 326 325 324 324 324 324 323 322 320 319 318 316 313 312 310 308 307 304 301 299 298 298 298 297 296 294 293 292 292 292 293 292 292 292 291
326 326 325 324 323 323 322 322 322 322 321 320 319 318 315 311 309 308 307 306 305 303 301 299 298 297 296 296 296 295 293 292 292 292 293 294 293 292
325 323 322 322 322 322 321 320 318 318 318 317 316 315 314 312 308 306 306 306 304 303 302 302 300 298 297 296 295 294 295 295 294 294 295 296 295 294
324 322 322 321 318 318 318 317 315 314 314 315 314 313 312 311 308 306 306 305 304 304 302 301 301 300 297 296 297 297 296 296 295 295 295 295 295 295
322 321 320 320 318 316 316 316 314 311 311 312 312 312 310 307 305 305 304 304 304 303 302 301 300 299 297 296 296 297 297 297 295 295 295 295 295 295
318 319 318 318 317 316 315 314 313 311 309 309 309 310 308 305 304 304 303 304 303 303 301 300 299 298 298 296 296 296 297 296 296 295 295 296 297 297
316 316 316 315 313 314 315 314 313 311 309 309 309 308 308 307 305 304 304 304 304 304 302 301 300 298 298 297 296 295 296 296 297 297 296 296 297 299
315 315 315 314 312 311 312 313 313 312 310 309 309 307 305 306 304 302 302 303 304 304 303 302 301 300 299 299 298 297 296 295 295 296 297 297 297 298
315 314 314 312 311 311 311 311 311 311 310 309 307 306 307 306 305 304 303 303 303 302 301 301 301 300 299 299 299 298 296 296 295 295 295 296 298 299
313 313 313 311 310 309 309 310 310 310 309 308 306 306 306 306 306 305 304 303 303 303 303 302 301 299 298 298 298 297 296 296 297 296 296 296 297 298
310 311 311 310 310 308 308 308 309 310 308 308 306 305 305 306 306 305 304 303 303 303 303 302 300 299 298 297 297 296 296 296 296 296 296 296 297 298
307 308 308 308 308 308 307 306 307 308 307 306 305 304 304 305 305 305 305 303 303 303 302 300 299 299 298 297 297 296 295 295 294 294 294 295 296 297
305 305 305 305 305 305 304 304 304 306 306 305 303 303 303 303 303 304 305 304 303 301 301 300 299 300 299 298 299 298 297 295 294 294 295 296 296 297
302 302 302 302 302 302 302 301 301 302 303 303 302 302 303 303 303 302 302 303 303 301 300 298 299 299 299 298 297 297 297 295 295 295 294 294 294 293
301 300 300 300 300 300 300 300 301 301 302 302 301 301 301 302 302 301 302 303 303 301 299 299 299 299 299 297 296 296 297 296 295 295 294 294 293 292
299 299 298 297 297 297 298 298 299 300 300 300 299 299 300 301 301 301 302 302 302 300 299 298 298 297 297 297 298 297 296 296 295 295 294 294 293 291
299 299 298 298 298 297 297 297 297 297 298 297 298 298 298 298 298 299 301 301 301 300 299 298 297 297 297 298 299 297 295 297 295 294 293 293 294 294
298 299 299 298 297 296 296 295 295 295 296 296 297 298 297 297 297 298 299 300 300 300 299 297 296 296 296 298 297 296 297 296 295 294 294 294 295 295
Height
5880 5877 5875 5873 5871 5869 5867 5864 5863 5861 5859 5857 5855 5853 5851 5849 5848 5846 5845 5843 5842 5840 5839 5838 5837 5836 5836 5835 5834 5833 5832 5831 5830 5830 5829 5828 5827 5827
5878 5876 5874 5871 5869 5866 5864 5861 5859 5858 5856 5854 5852 5850 5848 5846 5844 5842 5841 5839 5838 5837 5835 5834 5833 5832 5831 5830 5829 5828 5827 5826 5825 5824 5823 5823 5822 5821
5876 5874 5871 5869 5867 5864 5861 5859 5856 5854 5852 5850 5848 5846 5844 5842 5840 5839 5837 5835 5834 5833 5831 5830 5829 5828 5827 5826 5825 5824 5823 5822 5820 5819 5818 5817 5816 5815
5874 5872 5869 5866 5864 5861 5859 5856 5854 5851 5849 5847 5845 5842 5840 5838 5837 5835 5833 5831 5830 5828 5827 5826 5824 5823 5822 5821 5820 5819 5818 5816 5815 5814 5813 5812 5810 5809
5872 5869 5867 5864 5861 5859 5856 5854 5851 5848 5846 5844 5842 5839 5837 5835 5833 5831 5829 5827 5826 5824 5823 5821 5820 5819 5817 5816 5815 5814 5812 5811 5810 5809 5807 5806 5804 5802
5869 5867 5864 5861 5859 5856 5853 5850 5848 5845 5843 5840 5838 5836 5833 5831 5829 5827 5825 5823 5822 5820 5818 5817 5815 5814 5812 5811 5809 5808 5807 5805 5804 5802 5801 5799 5797 5795
5866 5863 5861 5858 5855 5852 5850 5847 5844 5842 5839 5837 5834 5832 5830 5827 5825 5823 5821 5819 5817 5815 5813 5812 5811 5809 5807 5805 5803 5802 5801 5799 5797 5796 5794 5792 5790 5788
5863 5860 5857 5854 5851 5849 5846 5843 5841 5838 5835 5833 5830 5827 5825 5823 5820 5818 5816 5814 5812 5810 5808 5807 5805 5803 5801 5799 5797 5796 5794 5792 5791 5789 5787 5785 5782 5780
5859 5856 5853 5850 5847 5844 5841 5839 5836 5833 5831 5828 5826 5823 5820 5817 5815 5813 5811 5809 5807 5805 5803 5801 5799 5797 5795 5793 5791 5789 5787 5785 5783 5781 5779 5777 5775 5772
5855 5852 5849 5846 5843 5840 5837 5834 5831 5828 5826 5823 5820 5818 5815 5812 5810 5808 5805 5803 5801 5799 5797 5795 5793 5791 5789 5786 5784 5782 5780 5778 5776 5774 5772 5769 5767 5764
5851 5847 5844 5841 5838 5835 5832 5829 5826 5823 5820 5817 5815 5811 5808 5806 5803 5801 5799 5797 5795 5792 5790 5788 5786 5784 5782 5780 5777 5775 5773 5771 5769 5766 5764 5761 5758 5756
5846 5842 5839 5836 5833 5830 5827 5824 5821 5817 5814 5811 5809 5806 5802 5800 5797 5795 5793 5791 5788 5786 5783 5781 5778 5776 5774 5772 5770 5767 5765 5763 5760 5758 5755 5753 5750 5747
5840 5837 5833 5830 5827 5824 5821 5818 5815 5811 5808 5805 5802 5799 5797 5794 5791 5788 5786 5783 5781 5778 5776 5773 5771 5768 5766 5764 5761 5759 5757 5754 5752 5749 5746 5744 5741 5738
5834 5831 5828 5824 5821 5818 5815 5811 5808 5805 5801 5798 5795 5793 5790 5788 5785 5782 5779 5776 5773 5771 5768 5765 5762 5760 5757 5755 5753 5750 5748 5745 5743 5741 5738 5735 5732 5729
5827 5824 5821 5818 5815 5812 5808 5805 5801 5798 5795 5792 5789 5786 5783 5780 5778 5775 5771 5769 5766 5763 5759 5756 5753 5751 5748 5746 5744 5741 5739 5736 5733 5731 5728 5726 5723 5720
5820 5817 5814 5811 5808 5805 5801 5798 5795 5791 5788 5785 5782 5779 5776 5773 5770 5767 5764 5761 5758 5755 5752 5748 5745 5742 5739 5737 5734 5732 5729 5727 5724 5722 5719 5717 5714 5711
5813 5810 5807 5804 5801 5798 5794 5791 5788 5784 5781 5777 5774 5771 5768 5766 5763 5760 5757 5753 5750 5747 5744 5740 5736 5733 5730 5728 5725 5722 5720 5717 5715 5712 5710 5707 5705 5702
5805 5802 5799 5796 5793 5790 5786 5783 5780 5776 5773 5770 5766 5763 5760 5757 5754 5751 5748 5744 5741 5738 5735 5731 5727 5724 5721 5719 5716 5713 5710 5707 5705 5702 5699 5697 5695 5692
5796 5793 5790 5787 5784 5781 5778 5774 5771 5768 5765 5761 5758 5755 5752 5749 5746 5742 5739 5736 5732 5729 5725 5721 5718 5714 5712 5709 5707 5704 5701 5698 5695 5692 5690 5688 5686 5683
5787 5784 5780 5777 5774 5771 5768 5765 5762 5759 5755 5752 5749 5746 5743 5740 5736 5733 5730 5727 5723 5720 5716 5712 5708 5705 5702 5700 5697 5694 5691 5688 5685 5682 5680 5677 5675 5673
5777 5774 5770 5767 5764 5761 5758 5755 5752 5749 5746 5743 5740 5736 5733 5730 5727 5724 5720 5717 5713 5710 5706 5703 5699 5696 5692 5690 5687 5684 5681 5678 5675 5672 5670 5667 5665 5663
5766 5763 5760 5757 5754 5751 5748 5745 5742 5739 5736 5733 5730 5727 5724 5720 5717 5714 5710 5707 5703 5700 5696 5693 5690 5686 5683 5680 5677 5674 5671 5668 5665 5662 5660 5658 5655 5653
5756 5753 5750 5747 5743 5740 5737 5734 5732 5729 5726 5723 5720 5717 5713 5710 5707 5704 5700 5696 5693 5689 5686 5683 5680 5676 5673 5669 5666 5663 5661 5658 5655 5653 5650 5648 5646 5644